Time,TemperatureF,DewpointF,PressureIn,WindDirection,WindDirectionDegrees,WindSpeedMPH,WindSpeedGustMPH,Humidity,HourlyPrecipIn,Conditions,Clouds,dailyrainin,SoftwareType,DateUTC
2013-07-02 00:01:00,68.0,55.0,30.17,East,95,0.0,-999.0,64,-99.99,,,-99.99,,2013-07-02 05:01:00,
2013-07-02 00:11:00,66.0,55.0,30.17,NE,46,1.0,-999.0,68,-99.99,,,-99.99,,2013-07-02 05:11:00,
2013-07-02 00:22:00,66.0,55.0,30.17,ENE,60,1.0,-999.0,68,-99.99,,,-99.99,,2013-07-02 05:22:00,
2013-07-02 00:32:00,66.0,55.0,30.16,NNE,28,1.0,-999.0,68,-99.99,,,-99.99,,2013-07-02 05:32:00,
2013-07-02 00:43:00,66.0,55.0,30.16,NE,43,1.0,-999.0,68,-99.99,,,-99.99,,2013-07-02 05:43:00,
2013-07-02 00:53:00,66.0,55.0,30.16,NNE,19,1.0,-999.0,68,-99.99,,,-99.99,,2013-07-02 05:53:00,
2013-07-02 01:01:00,66.0,55.0,30.16,ENE,70,0.0,-999.0,68,-99.99,,,-99.99,,2013-07-02 06:01:00,
2013-07-02 01:11:00,66.0,55.0,30.16,ENE,68,1.0,-999.0,68,-99.99,,,-99.99,,2013-07-02 06:11:00,
2013-07-02 01:23:00,66.0,55.0,30.16,NE,55,0.0,-999.0,68,-99.99,,,-99.99,,2013-07-02 06:23:00,
2013-07-02 01:34:00,66.0,55.0,30.16,ENE,70,0.0,-999.0,68,-99.99,,,-99.99,,2013-07-02 06:34:00,
2013-07-02 01:43:00,66.0,55.0,30.16,NE,42,2.0,-999.0,68,-99.99,,,-99.99,,2013-07-02 06:43:00,
2013-07-02 01:53:00,64.0,55.0,30.16,North,9,1.0,-999.0,72,-99.99,,,-99.99,,2013-07-02 06:53:00,
2013-07-02 02:01:00,64.0,55.0,30.15,East,90,0.0,-999.0,72,-99.99,,,-99.99,,2013-07-02 07:01:00,
2013-07-02 02:11:00,64.0,55.0,30.15,North,0,0.0,-999.0,72,-99.99,,,-99.99,,2013-07-02 07:11:00,
2013-07-02 02:22:00,64.0,55.0,30.15,ENE,75,0.0,-999.0,72,-99.99,,,-99.99,,2013-07-02 07:22:00,
2013-07-02 02:34:00,64.0,55.0,30.15,NE,47,1.0,-999.0,72,-99.99,,,-99.99,,2013-07-02 07:34:00,
2013-07-02 02:44:00,64.0,55.0,30.15,North,0,0.0,-999.0,72,-99.99,,,-99.99,,2013-07-02 07:44:00,
2013-07-02 02:53:00,64.0,55.0,30.15,ENE,70,0.0,-999.0,72,-99.99,,,-99.99,,2013-07-02 07:53:00,
2013-07-02 03:02:00,64.0,55.0,30.15,NE,48,0.0,-999.0,72,-99.99,,,-99.99,,2013-07-02 08:02:00,
2013-07-02 03:12:00,63.0,55.0,30.15,North,349,0.0,-999.0,77,-99.99,,,-99.99,,2013-07-02 08:12:00,
2013-07-02 03:22:00,63.0,55.0,30.15,NE,39,2.0,-999.0,77,-99.99,,,-99.99,,2013-07-02 08:22:00,
2013-07-02 03:33:00,63.0,55.0,30.15,East,90,0.0,-999.0,77,-99.99,,,-99.99,,2013-07-02 08:33:00,
2013-07-02 03:44:00,63.0,55.0,30.15,ENE,63,0.0,-999.0,77,-99.99,,,-99.99,,2013-07-02 08:44:00,
2013-07-02 03:53:00,63.0,55.0,30.15,ENE,57,1.0,-999.0,77,-99.99,,,-99.99,,2013-07-02 08:53:00,
2013-07-02 04:02:00,63.0,55.0,30.15,NE,42,1.0,-999.0,77,-99.99,,,-99.99,,2013-07-02 09:02:00,
2013-07-02 04:11:00,63.0,55.0,30.15,North,0,0.0,-999.0,77,-99.99,,,-99.99,,2013-07-02 09:11:00,
2013-07-02 04:23:00,63.0,55.0,30.15,North,0,0.0,-999.0,77,-99.99,,,-99.99,,2013-07-02 09:23:00,
2013-07-02 04:33:00,63.0,55.0,30.15,North,0,0.0,-999.0,77,-99.99,,,-99.99,,2013-07-02 09:33:00,
2013-07-02 04:43:00,63.0,55.0,30.15,NNE,24,1.0,-999.0,77,-99.99,,,-99.99,,2013-07-02 09:43:00,
2013-07-02 04:52:00,63.0,55.0,30.15,NNE,31,0.0,-999.0,77,-99.99,,,-99.99,,2013-07-02 09:52:00,
2013-07-02 05:01:00,63.0,55.0,30.15,North,0,0.0,-999.0,77,-99.99,,,-99.99,,2013-07-02 10:01:00,
2013-07-02 05:11:00,63.0,55.0,30.15,SSW,197,0.0,-999.0,77,-99.99,,,-99.99,,2013-07-02 10:11:00,
2013-07-02 05:22:00,63.0,55.0,30.15,ENE,70,0.0,-999.0,77,-99.99,,,-99.99,,2013-07-02 10:22:00,
2013-07-02 05:33:00,63.0,55.0,30.15,North,0,0.0,-999.0,77,-99.99,,,-99.99,,2013-07-02 10:33:00,
2013-07-02 05:44:00,63.0,55.0,30.15,North,0,0.0,-999.0,77,-99.99,,,-99.99,,2013-07-02 10:44:00,
2013-07-02 05:52:00,63.0,55.0,30.16,North,0,0.0,-999.0,77,-99.99,,,-99.99,,2013-07-02 10:52:00,
2013-07-02 06:01:00,63.0,55.0,30.16,ENE,70,0.0,-999.0,77,-99.99,,,-99.99,,2013-07-02 11:01:00,
2013-07-02 06:11:00,61.0,54.0,30.17,NNE,27,2.0,-999.0,77,-99.99,,,-99.99,,2013-07-02 11:11:00,
2013-07-02 06:33:00,61.0,55.0,30.17,North,0,0.0,-999.0,82,-99.99,,,-99.99,,2013-07-02 11:33:00,
2013-07-02 06:42:00,63.0,55.0,30.17,NNE,21,1.0,-999.0,77,-99.99,,,-99.99,,2013-07-02 11:42:00,
2013-07-02 06:52:00,63.0,55.0,30.17,NNE,25,2.0,-999.0,77,-99.99,,,-99.99,,2013-07-02 11:52:00,
2013-07-02 07:01:00,63.0,57.0,30.17,NNE,25,1.0,-999.0,82,-99.99,,,-99.99,,2013-07-02 12:01:00,
2013-07-02 08:01:00,66.0,57.0,30.18,NNE,25,1.0,-999.0,72,-99.99,,,-99.99,,2013-07-02 13:01:00,
2013-07-02 08:11:00,68.0,59.0,30.18,NNE,20,2.0,-999.0,72,-99.99,,,-99.99,,2013-07-02 13:11:00,
2013-07-02 08:43:00,70.0,59.0,30.18,NE,41,3.0,-999.0,68,-99.99,,,-99.99,,2013-07-02 13:43:00,
2013-07-02 09:33:00,73.0,57.0,30.18,NNE,26,3.0,-999.0,56,-99.99,,,-99.99,,2013-07-02 14:33:00,
2013-07-02 10:02:00,75.0,55.0,30.17,ENE,60,3.0,-999.0,50,-99.99,,,-99.99,,2013-07-02 15:02:00,
2013-07-02 10:11:00,75.0,54.0,30.17,ENE,64,3.0,-999.0,46,-99.99,,,-99.99,,2013-07-02 15:11:00,
2013-07-02 10:33:00,77.0,55.0,30.17,NNE,24,3.0,-999.0,47,-99.99,,,-99.99,,2013-07-02 15:33:00,
2013-07-02 10:44:00,77.0,55.0,30.18,East,80,3.0,-999.0,47,-99.99,,,-99.99,,2013-07-02 15:44:00,
2013-07-02 10:53:00,77.0,55.0,30.17,NE,39,3.0,-999.0,47,-99.99,,,-99.99,,2013-07-02 15:53:00,
2013-07-02 11:01:00,79.0,57.0,30.17,North,9,3.0,-999.0,47,-99.99,,,-99.99,,2013-07-02 16:01:00,
2013-07-02 11:12:00,77.0,55.0,30.17,North,0,3.0,-999.0,47,-99.99,,,-99.99,,2013-07-02 16:12:00,
2013-07-02 11:22:00,77.0,55.0,30.17,NE,37,3.0,-999.0,47,-99.99,,,-99.99,,2013-07-02 16:22:00,
2013-07-02 11:33:00,79.0,57.0,30.18,NNE,29,2.0,-999.0,47,-99.99,,,-99.99,,2013-07-02 16:33:00,
2013-07-02 11:43:00,79.0,55.0,30.17,North,6,3.0,-999.0,44,-99.99,,,-99.99,,2013-07-02 16:43:00,
2013-07-02 12:02:00,79.0,55.0,30.17,NNE,13,3.0,-999.0,44,-99.99,,,-99.99,,2013-07-02 17:02:00,
2013-07-02 12:11:00,79.0,57.0,30.17,North,9,6.0,-999.0,47,-99.99,,,-99.99,,2013-07-02 17:11:00,
2013-07-02 12:43:00,79.0,57.0,30.16,NNE,15,6.0,-999.0,47,-99.99,,,-99.99,,2013-07-02 17:43:00,
2013-07-02 12:53:00,79.0,57.0,30.16,NNE,12,6.0,-999.0,47,-99.99,,,-99.99,,2013-07-02 17:53:00,
2013-07-02 13:02:00,79.0,57.0,30.16,NNE,17,5.0,-999.0,47,-99.99,,,-99.99,,2013-07-02 18:02:00,
2013-07-02 13:12:00,79.0,57.0,30.16,North,2,3.0,-999.0,47,-99.99,,,-99.99,,2013-07-02 18:12:00,
2013-07-02 13:23:00,79.0,57.0,30.15,NNW,339,5.0,-999.0,47,-99.99,,,-99.99,,2013-07-02 18:23:00,
2013-07-02 13:34:00,79.0,57.0,30.15,NNE,14,1.0,-999.0,47,-99.99,,,-99.99,,2013-07-02 18:34:00,
2013-07-02 13:43:00,79.0,57.0,30.15,NNW,348,2.0,-999.0,47,-99.99,,,-99.99,,2013-07-02 18:43:00,
2013-07-02 14:01:00,79.0,57.0,30.15,NE,40,1.0,-999.0,47,-99.99,,,-99.99,,2013-07-02 19:01:00,
2013-07-02 14:12:00,79.0,57.0,30.14,NNE,27,2.0,-999.0,47,-99.99,,,-99.99,,2013-07-02 19:12:00,
2013-07-02 14:22:00,79.0,57.0,30.14,NE,35,3.0,-999.0,47,-99.99,,,-99.99,,2013-07-02 19:22:00,
2013-07-02 14:34:00,81.0,57.0,30.13,North,351,2.0,-999.0,44,-99.99,,,-99.99,,2013-07-02 19:34:00,
2013-07-02 14:43:00,81.0,57.0,30.13,East,91,1.0,-999.0,44,-99.99,,,-99.99,,2013-07-02 19:43:00,
2013-07-02 14:53:00,81.0,55.0,30.13,NNE,32,7.0,-999.0,41,-99.99,,,-99.99,,2013-07-02 19:53:00,
2013-07-02 15:02:00,81.0,55.0,30.12,NE,52,3.0,-999.0,41,-99.99,,,-99.99,,2013-07-02 20:02:00,
2013-07-02 15:11:00,82.0,55.0,30.12,NNE,26,2.0,-999.0,39,-99.99,,,-99.99,,2013-07-02 20:11:00,
2013-07-02 15:22:00,82.0,55.0,30.12,North,355,3.0,-999.0,39,-99.99,,,-99.99,,2013-07-02 20:22:00,
2013-07-02 15:33:00,82.0,55.0,30.12,NE,38,3.0,-999.0,39,-99.99,,,-99.99,,2013-07-02 20:33:00,
2013-07-02 15:43:00,82.0,57.0,30.12,NNW,334,1.0,-999.0,42,-99.99,,,-99.99,,2013-07-02 20:43:00,
2013-07-02 15:52:00,82.0,57.0,30.12,East,97,1.0,-999.0,42,-99.99,,,-99.99,,2013-07-02 20:52:00,
2013-07-02 16:02:00,82.0,55.0,30.11,ENE,77,2.0,-999.0,39,-99.99,,,-99.99,,2013-07-02 21:02:00,
2013-07-02 16:11:00,82.0,55.0,30.10,East,82,3.0,-999.0,39,-99.99,,,-99.99,,2013-07-02 21:11:00,
2013-07-02 16:22:00,82.0,55.0,30.10,NE,43,3.0,-999.0,39,-99.99,,,-99.99,,2013-07-02 21:22:00,
2013-07-02 16:33:00,82.0,55.0,30.09,East,96,3.0,-999.0,39,-99.99,,,-99.99,,2013-07-02 21:33:00,
2013-07-02 16:44:00,82.0,57.0,30.09,North,4,2.0,-999.0,42,-99.99,,,-99.99,,2013-07-02 21:44:00,
2013-07-02 16:52:00,84.0,57.0,30.09,NNW,332,2.0,-999.0,39,-99.99,,,-99.99,,2013-07-02 21:52:00,
2013-07-02 17:01:00,84.0,57.0,30.09,NNE,17,2.0,-999.0,39,-99.99,,,-99.99,,2013-07-02 22:01:00,
2013-07-02 17:11:00,82.0,57.0,30.10,WNW,294,3.0,-999.0,42,-99.99,,,-99.99,,2013-07-02 22:11:00,
2013-07-02 17:22:00,82.0,57.0,30.09,WNW,303,2.0,-999.0,42,-99.99,,,-99.99,,2013-07-02 22:22:00,
2013-07-02 17:34:00,82.0,57.0,30.09,West,278,3.0,-999.0,42,-99.99,,,-99.99,,2013-07-02 22:34:00,
2013-07-02 18:11:00,81.0,57.0,30.08,WNW,291,3.0,-999.0,44,-99.99,,,-99.99,,2013-07-02 23:11:00,
2013-07-02 18:22:00,79.0,57.0,30.08,WNW,284,5.0,-999.0,47,-99.99,,,-99.99,,2013-07-02 23:22:00,
2013-07-02 18:33:00,79.0,59.0,30.08,WNW,289,6.0,-999.0,50,-99.99,,,-99.99,,2013-07-02 23:33:00,
2013-07-02 18:44:00,79.0,57.0,30.08,NW,318,2.0,-999.0,47,-99.99,,,-99.99,,2013-07-02 23:44:00,
2013-07-02 18:52:00,77.0,59.0,30.08,WNW,286,5.0,-999.0,53,-99.99,,,-99.99,,2013-07-02 23:52:00,
2013-07-02 19:01:00,77.0,61.0,30.09,WNW,300,3.0,-999.0,57,-99.99,,,-99.99,,2013-07-03 00:01:00,
2013-07-02 19:11:00,77.0,59.0,30.09,WNW,286,2.0,-999.0,53,-99.99,,,-99.99,,2013-07-03 00:11:00,
2013-07-02 19:33:00,75.0,59.0,30.10,NE,44,2.0,-999.0,57,-99.99,,,-99.99,,2013-07-03 00:33:00,
2013-07-02 19:44:00,75.0,59.0,30.10,ENE,73,2.0,-999.0,57,-99.99,,,-99.99,,2013-07-03 00:44:00,
2013-07-02 19:52:00,75.0,59.0,30.10,East,97,6.0,-999.0,57,-99.99,,,-99.99,,2013-07-03 00:52:00,
2013-07-02 20:01:00,73.0,59.0,30.10,East,85,2.0,-999.0,60,-99.99,,,-99.99,,2013-07-03 01:01:00,
2013-07-02 20:11:00,73.0,57.0,30.10,ESE,114,2.0,-999.0,56,-99.99,,,-99.99,,2013-07-03 01:11:00,
2013-07-02 20:22:00,73.0,59.0,30.10,SE,137,3.0,-999.0,60,-99.99,,,-99.99,,2013-07-03 01:22:00,
2013-07-02 20:33:00,73.0,59.0,30.11,East,88,3.0,-999.0,60,-99.99,,,-99.99,,2013-07-03 01:33:00,
2013-07-02 20:42:00,72.0,57.0,30.12,East,81,5.0,-999.0,60,-99.99,,,-99.99,,2013-07-03 01:42:00,
2013-07-02 20:55:00,72.0,57.0,30.12,ESE,114,0.0,-999.0,60,-99.99,,,-99.99,,2013-07-03 01:55:00,
2013-07-02 21:04:00,72.0,57.0,30.12,ESE,123,2.0,-999.0,60,-99.99,,,-99.99,,2013-07-03 02:04:00,
2013-07-02 21:14:00,72.0,59.0,30.12,ENE,64,3.0,-999.0,64,-99.99,,,-99.99,,2013-07-03 02:14:00,
2013-07-02 21:39:00,72.0,59.0,30.11,WSW,237,1.0,-999.0,64,-99.99,,,-99.99,,2013-07-03 02:39:00,
2013-07-02 21:44:00,72.0,59.0,30.11,SSW,200,2.0,-999.0,64,-99.99,,,-99.99,,2013-07-03 02:44:00,
2013-07-02 22:04:00,72.0,59.0,30.11,SSW,211,3.0,-999.0,64,-99.99,,,-99.99,,2013-07-03 03:04:00,
2013-07-02 22:13:00,72.0,61.0,30.12,WNW,287,1.0,-999.0,68,-99.99,,,-99.99,,2013-07-03 03:13:00,
2013-07-02 22:35:00,70.0,59.0,30.11,WSW,239,2.0,-999.0,68,-99.99,,,-99.99,,2013-07-03 03:35:00,
2013-07-02 22:46:00,70.0,59.0,30.11,WNW,282,3.0,-999.0,68,-99.99,,,-99.99,,2013-07-03 03:46:00,
2013-07-02 22:55:00,70.0,59.0,30.12,WNW,288,1.0,-999.0,68,-99.99,,,-99.99,,2013-07-03 03:55:00,
2013-07-02 23:01:00,70.0,59.0,30.11,North,0,0.0,-999.0,68,-99.99,,,-99.99,,2013-07-03 04:01:00,
2013-07-02 23:33:00,70.0,59.0,30.12,North,0,0.0,-999.0,68,-99.99,,,-99.99,,2013-07-03 04:33:00,